Regional Weather Roundup
Issued by NWS

Home | Current Version | Previous Version | Graphics & Text | Print | Product List | Glossary On
Versions: 1 2 3 4 5 6 7 8 9 10 11 12 13 14 15 16 17 18 19 20 21 22 23 24 25 26 27 28 29 30 31 32 33 34 35 36 37 38 39 40 41 42 43 44 45 46 47 48 49 50
000
ASUS43 KOAX 030902
RWRNE

WEATHER ROUNDUP FOR NEBRASKA
NATIONAL WEATHER SERVICE OMAHA NE
300 AM CST SAT DEC 03 2016

NOTES: SATELLITE DATA IS BEING USED TO AUGMENT CLOUD COVER ABOVE
       12000 FEET.
       "FAIR" INDICATES FEW OR NO CLOUDS BELOW 12,000 FEET WITH NO
       SIGNIFICANT WEATHER AND/OR OBSTRUCTIONS TO VISIBILITY.

  * THESE STATIONS DO NOT REPORT WEATHER SUCH AS RAIN...SNOW OR FOG.

NEZ001>004-019>022-054>056-031000-
NEBRASKA PANHANDLE

CITY           SKY/WX    TMP DP  RH WIND       PRES   REMARKS
SCOTTSBLUFF    CLOUDY    28  20  71 S8        30.11  WCI  20
KIMBALL        CLEAR     26  23  87 S9        30.09F WCI  17
$$

NEZ057>060-069>072-079>082-031000-
SOUTHWEST NEBRASKA

CITY           SKY/WX    TMP DP  RH WIND       PRES   REMARKS
NORTH PLATTE   CLOUDY    32  24  72 VRB5      30.23  WCI  27
LEXINGTON      CLOUDY    32  27  81 S5        30.26F WCI  27
OGALLALA       CLOUDY    30  24  78 CALM      30.19F
$$

NEZ005>010-023>029-035>040-094-031000-
NORTH CENTRAL NEBRASKA

CITY           SKY/WX    TMP DP  RH WIND       PRES   REMARKS
AINSWORTH      CLOUDY    27  24  89 S5        30.18F WCI  21
O`NEILL        CLEAR     24  22  93 S7        30.25S WCI  16
THEDFORD       CLOUDY    31  25  78 S8        30.20F WCI  24
$$

NEZ041-046>049-061>064-073>077-083>087-031000-
SOUTH CENTRAL NEBRASKA

CITY           SKY/WX    TMP DP  RH WIND       PRES   REMARKS
GRAND ISLAND   CLOUDY    26  23  88 S6        30.29F WCI  19
AURORA         PTCLDY    23  22  93 SW5       30.29F WCI  17
HASTINGS       CLOUDY    28  23  81 S6        30.30F WCI  22
HEBRON         CLOUDY    26  23  88 CALM      30.32F
HOLDREGE       CLOUDY    25  21  85 S3        30.27F
YORK           CLOUDY    23  23 100 CALM      30.31S
$$

NEZ011>018-030>034-042>045-031000-
NORTHEAST NEBRASKA

CITY           SKY/WX    TMP DP  RH WIND       PRES   REMARKS
ALBION         PTCLDY    24  22  92 CALM      30.29F
BLAIR          CLEAR     28  26  93 CALM      30.32F
FREMONT        CLEAR     25  24  99 CALM      30.33F
WAYNE          CLEAR     20  18  93 S5        30.32F WCI  13
$$

NEZ050>053-065>068-078-088>093-031000-
SOUTHEAST NEBRASKA

CITY           SKY/WX    TMP DP  RH WIND       PRES   REMARKS
BEATRICE       CLOUDY    29  26  89 SE3       30.33S
FALLS CITY       N/A    N/A N/A N/A MISG      30.36
NEBRASKA CITY  CLEAR     28  25  89 S5        30.34S WCI  22
PLATTSMOUTH    CLOUDY    28  24  83 CALM      30.33F
$$

NEZ044-045-051>053-067-031000-
OMAHA AREA

CITY           SKY/WX    TMP DP  RH WIND       PRES   REMARKS
BLAIR          CLEAR     28  26  93 CALM      30.32F
FREMONT        CLEAR     25  24  99 CALM      30.33F
MILLARD        CLEAR     26  24  93 CALM      30.34F
OFFUTT AFB     PTCLDY    21  21  99 CALM      30.34F
PLATTSMOUTH    CLOUDY    28  24  83 CALM      30.33F
WAHOO          FAIR      20  18  92 NE5       30.34S WCI  13
$$




USA.gov is the U.S. government's official web portal to all federal, state and local government web resources and services.